Location: Parkway Village
(35.0643°N, 89.9062°W)
Time: 16:04:30
(UTC+00:00)

BlueWalker 3 - Pass Details

Date: 23 August 2024
Orbit: 475 x 487 km, 53.2° (Epoch: 17 September)

Event Time Altitude Azimuth Distance (km) Brightness Sun altitude
Rises 10:46:27 0° 302° (WNW) 2,563 5.2 -8.6°
Reaches altitude 10° 10:48:54 10° 288° (WNW) 1,678 4.1 -8.1°
Maximum altitude 10:51:59 24° 233° (SW) 1,043 3.0 -7.5°
Drops below altitude 10° 10:55:05 10° 178° (S) 1,668 4.4 -6.9°
Sets 10:57:31 0° 164° (SSE) 2,543 5.5 -6.4°
